Terug naar catalogus

STARLINK-35888

ActiefCommunicatieVLEO
NORAD 67190·PAYLOAD·🇺🇸 United States

Gelanceerd Dec 17, 2025 vanaf Cape Canaveral Space Force Station

Loading…

Volgende Passages (komende 24 uur)

TLE

VersSource: CelesTrak SupGP

Epoch: Sep 15, 2026, 02:58 UTC

1 67190C 25303AD  26258.12409722  .00045280  00000+0  16397-2 0  2580
2 67190  43.0008 321.1091 0001573 267.2040 109.5809 15.27561669    15

Volg STARLINK-35888 in realtime met AllMySat

Download on the App Store